Wetterdaten: Samstag, 23.11.2013
Datum Zeit Temp. Auen Feucht Auen Luftdruck Regen Richtung Richtung Windben
23.11.2013 00:00 3,7 C 92 % 1008,5 hPa 0,0 mm W 277 0,0 km/h (0 Bft)
23.11.2013 00:05 3,6 C 92 % 1008,6 hPa 0,0 mm W 277 0,0 km/h (0 Bft)
23.11.2013 00:10 3,6 C 92 % 1008,5 hPa 0,0 mm W 277 0,0 km/h (0 Bft)
23.11.2013 00:15 3,6 C 92 % 1008,5 hPa 0,0 mm W 277 0,0 km/h (0 Bft)
23.11.2013 00:20 3,6 C 92 % 1008,5 hPa 0,0 mm W 277 0,0 km/h (0 Bft)
23.11.2013 00:25 3,6 C 92 % 1008,5 hPa 0,0 mm W 277 0,0 km/h (0 Bft)
23.11.2013 00:30 3,6 C 92 % 1008,5 hPa 0,0 mm W 277 0,0 km/h (0 Bft)
23.11.2013 00:35 3,6 C 92 % 1008,5 hPa 0,0 mm W 277 0,0 km/h (0 Bft)
23.11.2013 00:40 3,6 C 92 % 1008,5 hPa 0,0 mm W 277 0,0 km/h (0 Bft)
23.11.2013 00:45 3,6 C 92 % 1008,4 hPa 0,0 mm W 277 0,0 km/h (0 Bft)
23.11.2013 00:50 3,6 C 92 % 1008,5 hPa 0,0 mm W 277 0,0 km/h (0 Bft)
23.11.2013 00:55 3,6 C 92 % 1008,5 hPa 0,0 mm W 277 0,0 km/h (0 Bft)
23.11.2013 01:00 3,6 C 92 % 1008,5 hPa 0,0 mm W 277 0,0 km/h (0 Bft)
23.11.2013 01:05 3,6 C 92 % 1008,5 hPa 0,0 mm W 277 0,0 km/h (0 Bft)
23.11.2013 01:10 3,6 C 92 % 1008,6 hPa 0,0 mm W 277 0,0 km/h (0 Bft)
23.11.2013 01:15 3,6 C 92 % 1008,6 hPa 0,0 mm W 277 0,0 km/h (0 Bft)
23.11.2013 01:20 3,6 C 92 % 1008,6 hPa 0,0 mm W 277 0,0 km/h (0 Bft)
23.11.2013 01:25 3,6 C 92 % 1008,6 hPa 0,0 mm W 277 0,0 km/h (0 Bft)
23.11.2013 01:30 3,6 C 92 % 1008,7 hPa 0,0 mm W 277 0,0 km/h (0 Bft)
23.11.2013 01:35 3,6 C 92 % 1008,5 hPa 0,0 mm W 277 0,0 km/h (0 Bft)
23.11.2013 01:40 3,6 C 92 % 1008,5 hPa 0,0 mm W 277 0,0 km/h (0 Bft)
23.11.2013 01:45 3,6 C 92 % 1008,6 hPa 0,0 mm W 277 0,0 km/h (0 Bft)
23.11.2013 01:50 3,6 C 92 % 1008,7 hPa 0,0 mm W 277 0,0 km/h (0 Bft)
23.11.2013 01:55 3,6 C 92 % 1008,7 hPa 0,0 mm W 277 0,0 km/h (0 Bft)
23.11.2013 02:00 3,6 C 92 % 1008,6 hPa 0,0 mm W 277 0,0 km/h (0 Bft)
23.11.2013 02:05 3,5 C 92 % 1008,4 hPa 0,0 mm W 277 0,0 km/h (0 Bft)
23.11.2013 02:10 3,6 C 92 % 1008,5 hPa 0,0 mm W 277 0,0 km/h (0 Bft)
23.11.2013 02:15 3,5 C 92 % 1008,5 hPa 0,0 mm W 277 0,0 km/h (0 Bft)
23.11.2013 02:20 3,5 C 92 % 1008,5 hPa 0,0 mm W 277 0,0 km/h (0 Bft)
23.11.2013 02:25 3,5 C 92 % 1008,5 hPa 0,0 mm W 277 0,0 km/h (0 Bft)
23.11.2013 02:30 3,5 C 92 % 1008,5 hPa 0,0 mm W 277 0,0 km/h (0 Bft)
23.11.2013 02:35 3,5 C 93 % 1008,6 hPa 0,0 mm W 277 0,0 km/h (0 Bft)
23.11.2013 02:40 3,5 C 93 % 1008,6 hPa 0,0 mm W 277 0,0 km/h (0 Bft)
23.11.2013 02:45 3,5 C 93 % 1008,7 hPa 0,0 mm W 277 0,0 km/h (0 Bft)
23.11.2013 02:50 3,5 C 93 % 1008,5 hPa 0,0 mm W 277 0,0 km/h (0 Bft)
23.11.2013 02:55 3,5 C 93 % 1008,6 hPa 0,0 mm W 277 3,2 km/h (1 Bft)
23.11.2013 03:00 3,5 C 93 % 1008,5 hPa 0,0 mm W 277 1,6 km/h (1 Bft)
23.11.2013 03:05 3,5 C 93 % 1008,5 hPa 0,0 mm W 277 1,6 km/h (1 Bft)
23.11.2013 03:10 3,5 C 93 % 1008,5 hPa 0,2 mm W 277 1,6 km/h (1 Bft)
23.11.2013 03:15 3,5 C 93 % 1008,5 hPa 0,0 mm W 277 0,0 km/h (0 Bft)
23.11.2013 03:20 3,5 C 93 % 1008,5 hPa 0,0 mm W 277 0,0 km/h (0 Bft)
23.11.2013 03:25 3,4 C 93 % 1008,4 hPa 0,0 mm W 277 0,0 km/h (0 Bft)
23.11.2013 03:30 3,4 C 93 % 1008,6 hPa 0,2 mm W 277 0,0 km/h (0 Bft)
23.11.2013 03:35 3,5 C 93 % 1008,6 hPa 0,0 mm W 277 0,0 km/h (0 Bft)
23.11.2013 03:40 3,4 C 93 % 1008,6 hPa 0,0 mm W 277 1,6 km/h (1 Bft)
23.11.2013 03:45 3,4 C 93 % 1008,5 hPa 0,2 mm W 277 1,6 km/h (1 Bft)
23.11.2013 03:50 3,4 C 93 % 1008,6 hPa 0,2 mm W 277 1,6 km/h (1 Bft)
23.11.2013 03:55 3,4 C 93 % 1008,6 hPa 0,0 mm W 277 1,6 km/h (1 Bft)
23.11.2013 04:00 3,4 C 93 % 1008,6 hPa 0,0 mm W 277 1,6 km/h (1 Bft)
23.11.2013 04:05 3,4 C 93 % 1008,6 hPa 0,2 mm W 277 1,6 km/h (1 Bft)
23.11.2013 04:10 3,4 C 93 % 1008,6 hPa 0,2 mm W 277 1,6 km/h (1 Bft)
23.11.2013 04:15 3,4 C 93 % 1008,5 hPa 0,0 mm W 277 1,6 km/h (1 Bft)
23.11.2013 04:20 3,3 C 93 % 1008,6 hPa 0,2 mm W 277 3,2 km/h (1 Bft)
23.11.2013 04:25 3,3 C 93 % 1008,6 hPa 0,2 mm W 277 3,2 km/h (1 Bft)
23.11.2013 04:30 3,2 C 93 % 1008,6 hPa 0,0 mm W 277 3,2 km/h (1 Bft)
23.11.2013 04:35 3,1 C 93 % 1008,6 hPa 0,2 mm W 279 3,2 km/h (1 Bft)
23.11.2013 04:40 3,0 C 93 % 1008,7 hPa 0,0 mm W 274 3,2 km/h (1 Bft)
23.11.2013 04:45 2,9 C 93 % 1008,7 hPa 0,2 mm W 269 4,8 km/h (1 Bft)
23.11.2013 04:50 2,8 C 93 % 1008,7 hPa 0,0 mm W 268 3,2 km/h (1 Bft)
23.11.2013 04:55 2,7 C 93 % 1008,7 hPa 0,4 mm W 272 3,2 km/h (1 Bft)
23.11.2013 05:00 2,6 C 93 % 1008,7 hPa 0,0 mm W 273 4,8 km/h (1 Bft)
23.11.2013 05:05 2,5 C 93 % 1008,7 hPa 0,2 mm W 273 3,2 km/h (1 Bft)
23.11.2013 05:10 2,4 C 93 % 1008,7 hPa 0,0 mm W 273 1,6 km/h (1 Bft)
23.11.2013 05:15 2,3 C 93 % 1008,7 hPa 0,2 mm W 273 1,6 km/h (1 Bft)
23.11.2013 05:20 2,2 C 92 % 1008,7 hPa 0,0 mm W 273 3,2 km/h (1 Bft)
23.11.2013 05:25 2,2 C 92 % 1008,8 hPa 0,0 mm W 273 3,2 km/h (1 Bft)
23.11.2013 05:30 2,1 C 93 % 1008,7 hPa 0,2 mm W 273 1,6 km/h (1 Bft)
23.11.2013 05:35 2,0 C 93 % 1008,7 hPa 0,0 mm W 273 1,6 km/h (1 Bft)
23.11.2013 05:40 2,0 C 93 % 1008,8 hPa 0,2 mm W 273 3,2 km/h (1 Bft)
23.11.2013 05:45 1,9 C 92 % 1008,8 hPa 0,0 mm W 273 1,6 km/h (1 Bft)
23.11.2013 05:50 1,8 C 93 % 1008,8 hPa 0,0 mm W 273 1,6 km/h (1 Bft)
23.11.2013 05:55 1,8 C 93 % 1008,7 hPa 0,0 mm W 276 3,2 km/h (1 Bft)
23.11.2013 06:00 1,8 C 93 % 1008,7 hPa 0,0 mm W 276 3,2 km/h (1 Bft)
23.11.2013 06:05 1,8 C 93 % 1008,7 hPa 0,0 mm W 276 3,2 km/h (1 Bft)
23.11.2013 06:10 1,8 C 93 % 1008,7 hPa 0,0 mm W 276 3,2 km/h (1 Bft)
23.11.2013 06:15 1,8 C 93 % 1008,7 hPa 0,0 mm W 276 4,8 km/h (1 Bft)
23.11.2013 06:20 1,8 C 93 % 1008,8 hPa 0,0 mm W 272 3,2 km/h (1 Bft)
23.11.2013 06:25 1,8 C 93 % 1008,8 hPa 0,0 mm W-NW 283 4,8 km/h (1 Bft)
23.11.2013 06:30 1,8 C 93 % 1008,9 hPa 0,0 mm W-NW 283 3,2 km/h (1 Bft)
23.11.2013 06:35 1,8 C 93 % 1008,8 hPa 0,0 mm W-NW 295 4,8 km/h (1 Bft)
23.11.2013 06:40 1,8 C 93 % 1008,8 hPa 0,0 mm W 273 3,2 km/h (1 Bft)
23.11.2013 06:45 1,8 C 93 % 1008,8 hPa 0,0 mm W 273 3,2 km/h (1 Bft)
23.11.2013 06:50 1,8 C 93 % 1008,9 hPa 0,0 mm W 273 1,6 km/h (1 Bft)
23.11.2013 06:55 1,8 C 93 % 1009,0 hPa 0,0 mm W 273 1,6 km/h (1 Bft)
23.11.2013 07:00 1,8 C 93 % 1009,0 hPa 0,0 mm W 276 3,2 km/h (1 Bft)
23.11.2013 07:05 1,9 C 93 % 1009,2 hPa 0,0 mm W 277 3,2 km/h (1 Bft)
23.11.2013 07:10 1,9 C 93 % 1009,2 hPa 0,0 mm W 276 1,6 km/h (1 Bft)
23.11.2013 07:15 1,9 C 93 % 1009,2 hPa 0,0 mm W 276 3,2 km/h (1 Bft)
23.11.2013 07:20 1,9 C 93 % 1009,2 hPa 0,0 mm W 276 0,0 km/h (0 Bft)
23.11.2013 07:25 1,9 C 93 % 1009,0 hPa 0,0 mm W 276 0,0 km/h (0 Bft)
23.11.2013 07:30 1,9 C 93 % 1009,2 hPa 0,0 mm W 277 0,0 km/h (0 Bft)
23.11.2013 07:35 2,0 C 93 % 1009,2 hPa 0,0 mm W 277 0,0 km/h (0 Bft)
23.11.2013 07:40 2,0 C 93 % 1009,2 hPa 0,0 mm W 277 0,0 km/h (0 Bft)
23.11.2013 07:45 2,0 C 93 % 1009,2 hPa 0,0 mm W-NW 287 1,6 km/h (1 Bft)
23.11.2013 07:50 2,1 C 93 % 1009,3 hPa 0,2 mm W-NW 287 3,2 km/h (1 Bft)
23.11.2013 07:55 2,1 C 93 % 1009,3 hPa 0,0 mm W-NW 287 0,0 km/h (0 Bft)
23.11.2013 08:00 2,1 C 93 % 1009,3 hPa 0,0 mm W-NW 287 0,0 km/h (0 Bft)
23.11.2013 08:05 2,1 C 93 % 1009,3 hPa 0,0 mm W-NW 287 0,0 km/h (0 Bft)
23.11.2013 08:10 2,1 C 93 % 1009,3 hPa 0,0 mm W-NW 287 0,0 km/h (0 Bft)
23.11.2013 08:15 2,1 C 93 % 1009,3 hPa 0,0 mm W-NW 287 0,0 km/h (0 Bft)
23.11.2013 08:20 2,1 C 93 % 1009,3 hPa 0,0 mm W-NW 287 0,0 km/h (0 Bft)
23.11.2013 08:25 2,2 C 93 % 1009,4 hPa 0,0 mm W-NW 287 0,0 km/h (0 Bft)
23.11.2013 08:30 2,2 C 93 % 1009,4 hPa 0,0 mm W-NW 287 0,0 km/h (0 Bft)
23.11.2013 08:35 2,2 C 93 % 1009,5 hPa 0,0 mm W-NW 285 3,2 km/h (1 Bft)
23.11.2013 08:40 2,2 C 93 % 1009,4 hPa 0,0 mm W-NW 284 3,2 km/h (1 Bft)
23.11.2013 08:45 2,2 C 93 % 1009,4 hPa 0,0 mm W-NW 284 1,6 km/h (1 Bft)
23.11.2013 08:50 2,2 C 93 % 1009,4 hPa 0,2 mm W-NW 284 3,2 km/h (1 Bft)
23.11.2013 08:55 2,2 C 93 % 1009,4 hPa 0,0 mm W-NW 284 3,2 km/h (1 Bft)
23.11.2013 09:00 2,2 C 93 % 1009,4 hPa 0,0 mm W-NW 284 1,6 km/h (1 Bft)
23.11.2013 09:05 2,2 C 93 % 1009,5 hPa 0,0 mm W-NW 284 0,0 km/h (0 Bft)
23.11.2013 09:10 2,3 C 93 % 1009,5 hPa 0,0 mm W-NW 284 1,6 km/h (1 Bft)
23.11.2013 09:15 2,3 C 93 % 1009,5 hPa 0,0 mm W-NW 284 1,6 km/h (1 Bft)
23.11.2013 09:20 2,3 C 93 % 1009,5 hPa 0,0 mm W-NW 284 3,2 km/h (1 Bft)
23.11.2013 09:25 2,3 C 93 % 1009,5 hPa 0,0 mm W-NW 284 3,2 km/h (1 Bft)
23.11.2013 09:30 2,3 C 93 % 1009,7 hPa 0,0 mm W-NW 284 3,2 km/h (1 Bft)
23.11.2013 09:35 2,3 C 93 % 1009,7 hPa 0,0 mm W 269 3,2 km/h (1 Bft)
23.11.2013 09:40 2,3 C 93 % 1009,6 hPa 0,0 mm W 269 4,8 km/h (1 Bft)
23.11.2013 09:45 2,4 C 93 % 1009,5 hPa 0,0 mm W 269 4,8 km/h (1 Bft)
23.11.2013 09:50 2,4 C 93 % 1009,4 hPa 0,0 mm W 274 3,2 km/h (1 Bft)
23.11.2013 09:55 2,4 C 93 % 1009,6 hPa 0,0 mm W 281 4,8 km/h (1 Bft)
23.11.2013 10:00 2,4 C 93 % 1009,7 hPa 0,0 mm W 281 3,2 km/h (1 Bft)
23.11.2013 10:05 2,4 C 93 % 1009,5 hPa 0,0 mm W 281 3,2 km/h (1 Bft)
23.11.2013 10:10 2,4 C 93 % 1009,7 hPa 0,0 mm W 281 1,6 km/h (1 Bft)
23.11.2013 10:15 2,5 C 93 % 1009,8 hPa 0,0 mm W 281 1,6 km/h (1 Bft)
23.11.2013 10:20 2,5 C 93 % 1009,8 hPa 0,0 mm W 281 3,2 km/h (1 Bft)
23.11.2013 10:25 2,6 C 93 % 1009,8 hPa 0,0 mm W 281 1,6 km/h (1 Bft)
23.11.2013 10:30 2,6 C 93 % 1009,8 hPa 0,0 mm W 281 3,2 km/h (1 Bft)
23.11.2013 10:35 2,6 C 93 % 1009,8 hPa 0,0 mm W 281 3,2 km/h (1 Bft)
23.11.2013 10:40 2,6 C 93 % 1009,8 hPa 0,0 mm W 281 1,6 km/h (1 Bft)
23.11.2013 10:45 2,6 C 93 % 1009,8 hPa 0,0 mm W 281 0,0 km/h (0 Bft)
23.11.2013 10:50 2,7 C 93 % 1009,7 hPa 0,0 mm W 281 0,0 km/h (0 Bft)
23.11.2013 10:55 2,7 C 93 % 1009,6 hPa 0,0 mm W 281 0,0 km/h (0 Bft)
23.11.2013 11:00 2,7 C 93 % 1009,5 hPa 0,0 mm W 271 3,2 km/h (1 Bft)
23.11.2013 11:05 2,7 C 93 % 1009,4 hPa 0,0 mm W 271 3,2 km/h (1 Bft)
23.11.2013 11:10 2,7 C 93 % 1009,3 hPa 0,0 mm W 275 4,8 km/h (1 Bft)
23.11.2013 11:15 2,7 C 93 % 1009,3 hPa 0,0 mm W 275 0,0 km/h (0 Bft)
23.11.2013 11:20 2,8 C 93 % 1009,3 hPa 0,0 mm W 274 1,6 km/h (1 Bft)
23.11.2013 11:25 2,8 C 93 % 1009,3 hPa 0,0 mm W-NW 294 3,2 km/h (1 Bft)
23.11.2013 11:30 2,9 C 93 % 1009,4 hPa 0,0 mm W 273 3,2 km/h (1 Bft)
23.11.2013 11:35 2,9 C 93 % 1009,3 hPa 0,0 mm W 273 1,6 km/h (1 Bft)
23.11.2013 11:40 2,9 C 93 % 1009,5 hPa 0,0 mm W 273 1,6 km/h (1 Bft)
23.11.2013 11:45 3,0 C 93 % 1009,3 hPa 0,0 mm W 273 3,2 km/h (1 Bft)
23.11.2013 11:50 3,0 C 93 % 1009,3 hPa 0,0 mm W 273 3,2 km/h (1 Bft)
23.11.2013 11:55 3,0 C 93 % 1009,3 hPa 0,0 mm W 273 1,6 km/h (1 Bft)
23.11.2013 12:00 3,1 C 93 % 1009,3 hPa 0,0 mm W 273 3,2 km/h (1 Bft)
23.11.2013 12:05 3,1 C 93 % 1009,3 hPa 0,0 mm W 273 3,2 km/h (1 Bft)
23.11.2013 12:10 3,1 C 93 % 1009,3 hPa 0,0 mm W 266 4,8 km/h (1 Bft)
23.11.2013 12:15 3,1 C 93 % 1009,3 hPa 0,0 mm W 266 3,2 km/h (1 Bft)
23.11.2013 12:20 3,2 C 93 % 1009,3 hPa 0,2 mm W 266 3,2 km/h (1 Bft)
23.11.2013 12:25 3,2 C 93 % 1009,3 hPa 0,0 mm W 276 6,4 km/h (2 Bft)
23.11.2013 12:30 3,2 C 93 % 1009,3 hPa 0,0 mm W 269 4,8 km/h (1 Bft)
23.11.2013 12:35 3,2 C 93 % 1009,3 hPa 0,0 mm W 272 4,8 km/h (1 Bft)
23.11.2013 12:40 3,2 C 93 % 1009,3 hPa 0,0 mm W 279 4,8 km/h (1 Bft)
23.11.2013 12:45 3,2 C 93 % 1009,2 hPa 0,0 mm W 279 3,2 km/h (1 Bft)
23.11.2013 12:50 3,2 C 93 % 1009,2 hPa 0,0 mm W 269 4,8 km/h (1 Bft)
23.11.2013 12:55 3,3 C 93 % 1009,3 hPa 0,2 mm W 270 3,2 km/h (1 Bft)
23.11.2013 13:00 3,3 C 93 % 1009,2 hPa 0,0 mm W 269 3,2 km/h (1 Bft)
23.11.2013 13:05 3,3 C 93 % 1009,2 hPa 0,0 mm W 273 3,2 km/h (1 Bft)
23.11.2013 13:10 3,3 C 93 % 1009,1 hPa 0,0 mm W 266 4,8 km/h (1 Bft)
23.11.2013 13:15 3,3 C 93 % 1009,3 hPa 0,0 mm W 274 4,8 km/h (1 Bft)
23.11.2013 13:20 3,3 C 93 % 1009,3 hPa 0,0 mm W 274 3,2 km/h (1 Bft)
23.11.2013 13:25 3,3 C 93 % 1009,3 hPa 0,0 mm W 271 4,8 km/h (1 Bft)
23.11.2013 13:30 3,3 C 93 % 1009,4 hPa 0,0 mm W 273 3,2 km/h (1 Bft)
23.11.2013 13:35 3,4 C 93 % 1009,4 hPa 0,0 mm W 265 4,8 km/h (1 Bft)
23.11.2013 13:40 3,4 C 93 % 1009,4 hPa 0,0 mm W 277 4,8 km/h (1 Bft)
23.11.2013 13:45 3,4 C 93 % 1009,3 hPa 0,2 mm W 277 3,2 km/h (1 Bft)
23.11.2013 13:50 3,4 C 93 % 1009,3 hPa 0,0 mm W 278 4,8 km/h (1 Bft)
23.11.2013 13:55 3,4 C 93 % 1009,3 hPa 0,0 mm W-NW 283 3,2 km/h (1 Bft)
23.11.2013 14:00 3,5 C 93 % 1009,2 hPa 0,2 mm W 269 6,4 km/h (2 Bft)
23.11.2013 14:05 3,5 C 93 % 1009,1 hPa 0,0 mm W 275 4,8 km/h (1 Bft)
23.11.2013 14:10 3,5 C 93 % 1009,0 hPa 0,0 mm W 273 3,2 km/h (1 Bft)
23.11.2013 14:15 3,5 C 93 % 1008,9 hPa 0,0 mm W 277 6,4 km/h (2 Bft)
23.11.2013 14:20 3,5 C 93 % 1009,0 hPa 0,0 mm W 272 4,8 km/h (1 Bft)
23.11.2013 14:25 3,5 C 93 % 1008,9 hPa 0,0 mm W 273 3,2 km/h (1 Bft)
23.11.2013 14:30 3,5 C 93 % 1009,0 hPa 0,0 mm W 273 1,6 km/h (1 Bft)
23.11.2013 14:35 3,5 C 93 % 1009,0 hPa 0,0 mm W 277 3,2 km/h (1 Bft)
23.11.2013 14:40 3,6 C 93 % 1009,0 hPa 0,0 mm W 277 1,6 km/h (1 Bft)
23.11.2013 14:45 3,6 C 93 % 1009,1 hPa 0,0 mm W 277 3,2 km/h (1 Bft)
23.11.2013 14:50 3,6 C 93 % 1009,1 hPa 0,0 mm W 275 4,8 km/h (1 Bft)
23.11.2013 14:55 3,6 C 93 % 1009,1 hPa 0,0 mm W 268 4,8 km/h (1 Bft)
23.11.2013 15:00 3,6 C 93 % 1009,2 hPa 0,0 mm W 275 4,8 km/h (1 Bft)
23.11.2013 15:05 3,6 C 93 % 1009,2 hPa 0,2 mm W 271 4,8 km/h (1 Bft)
23.11.2013 15:10 3,6 C 93 % 1009,2 hPa 0,0 mm W 263 4,8 km/h (1 Bft)
23.11.2013 15:15 3,6 C 93 % 1009,2 hPa 0,2 mm W 273 4,8 km/h (1 Bft)
23.11.2013 15:20 3,6 C 93 % 1009,2 hPa 0,0 mm W-SW 256 4,8 km/h (1 Bft)
23.11.2013 15:25 3,6 C 93 % 1009,2 hPa 0,0 mm W 265 3,2 km/h (1 Bft)
23.11.2013 15:30 3,6 C 93 % 1009,3 hPa 0,0 mm W 269 3,2 km/h (1 Bft)
23.11.2013 15:35 3,6 C 93 % 1009,2 hPa 0,2 mm W-SW 257 4,8 km/h (1 Bft)
23.11.2013 15:40 3,7 C 93 % 1009,2 hPa 0,2 mm W 270 6,4 km/h (2 Bft)
23.11.2013 15:45 3,6 C 93 % 1009,2 hPa 0,0 mm W 266 4,8 km/h (1 Bft)
23.11.2013 15:50 3,6 C 93 % 1009,3 hPa 0,0 mm W 273 4,8 km/h (1 Bft)
23.11.2013 15:55 3,7 C 93 % 1009,2 hPa 0,0 mm W 269 6,4 km/h (2 Bft)
23.11.2013 16:00 3,7 C 93 % 1009,3 hPa 0,0 mm W 277 4,8 km/h (1 Bft)
23.11.2013 16:05 3,7 C 93 % 1009,2 hPa 0,0 mm W 264 6,4 km/h (2 Bft)
23.11.2013 16:10 3,7 C 93 % 1009,2 hPa 0,0 mm W 271 4,8 km/h (1 Bft)
23.11.2013 16:15 3,6 C 93 % 1009,2 hPa 0,0 mm W 267 6,4 km/h (2 Bft)
23.11.2013 16:20 3,7 C 93 % 1009,2 hPa 0,2 mm W 275 4,8 km/h (1 Bft)
23.11.2013 16:25 3,7 C 93 % 1009,2 hPa 0,0 mm W 265 4,8 km/h (1 Bft)
23.11.2013 16:30 3,7 C 93 % 1009,3 hPa 0,0 mm W 276 4,8 km/h (1 Bft)
23.11.2013 16:35 3,7 C 93 % 1009,3 hPa 0,0 mm W 262 8,0 km/h (2 Bft)
23.11.2013 16:40 3,7 C 93 % 1009,3 hPa 0,2 mm W 267 8,0 km/h (2 Bft)
23.11.2013 16:45 3,7 C 93 % 1009,4 hPa 0,0 mm W-NW 287 3,2 km/h (1 Bft)
23.11.2013 16:50 3,7 C 93 % 1009,3 hPa 0,0 mm W 261 4,8 km/h (1 Bft)
23.11.2013 16:55 3,7 C 93 % 1009,4 hPa 0,0 mm W 269 6,4 km/h (2 Bft)
23.11.2013 17:00 3,7 C 93 % 1009,4 hPa 0,0 mm W-NW 284 6,4 km/h (2 Bft)
23.11.2013 17:05 3,7 C 93 % 1009,5 hPa 0,0 mm W 265 6,4 km/h (2 Bft)
23.11.2013 17:10 3,7 C 93 % 1009,4 hPa 0,0 mm W-NW 286 8,0 km/h (2 Bft)
23.11.2013 17:15 3,7 C 93 % 1009,5 hPa 0,0 mm W 278 4,8 km/h (1 Bft)
23.11.2013 17:20 3,7 C 93 % 1009,5 hPa 0,0 mm W-NW 294 6,4 km/h (2 Bft)
23.11.2013 17:25 3,7 C 93 % 1009,5 hPa 0,2 mm W-NW 284 8,0 km/h (2 Bft)
23.11.2013 17:30 3,7 C 93 % 1009,5 hPa 0,0 mm W 275 4,8 km/h (1 Bft)
23.11.2013 17:35 3,8 C 93 % 1009,5 hPa 0,0 mm W 271 6,4 km/h (2 Bft)
23.11.2013 17:40 3,8 C 93 % 1009,7 hPa 0,0 mm W 269 4,8 km/h (1 Bft)
23.11.2013 17:45 3,8 C 93 % 1009,5 hPa 0,0 mm N-NO 15 8,0 km/h (2 Bft)
23.11.2013 17:50 3,8 C 93 % 1009,6 hPa 0,0 mm W-NW 302 3,2 km/h (1 Bft)
23.11.2013 17:55 3,8 C 93 % 1009,5 hPa 0,0 mm W 281 4,8 km/h (1 Bft)
23.11.2013 18:00 3,8 C 93 % 1009,5 hPa 0,0 mm W-NW 286 9,7 km/h (2 Bft)
23.11.2013 18:05 3,8 C 93 % 1009,5 hPa 0,0 mm W-NW 296 9,7 km/h (2 Bft)
23.11.2013 18:10 3,9 C 93 % 1009,5 hPa 0,0 mm W 273 3,2 km/h (1 Bft)
23.11.2013 18:15 3,9 C 93 % 1009,5 hPa 0,0 mm W 273 1,6 km/h (1 Bft)
23.11.2013 18:20 3,9 C 93 % 1009,5 hPa 0,0 mm W 274 3,2 km/h (1 Bft)
23.11.2013 18:25 4,0 C 93 % 1009,4 hPa 0,0 mm W 274 0,0 km/h (0 Bft)
23.11.2013 18:30 4,0 C 93 % 1009,4 hPa 0,0 mm W 273 3,2 km/h (1 Bft)
23.11.2013 18:35 4,1 C 93 % 1009,4 hPa 0,2 mm W 273 1,6 km/h (1 Bft)
23.11.2013 18:40 4,1 C 93 % 1009,5 hPa 0,0 mm W 266 6,4 km/h (2 Bft)
23.11.2013 18:45 4,2 C 93 % 1009,5 hPa 0,0 mm W 273 8,0 km/h (2 Bft)
23.11.2013 18:50 4,3 C 93 % 1009,5 hPa 0,0 mm S-SO 162 4,8 km/h (1 Bft)
23.11.2013 18:55 4,4 C 93 % 1009,6 hPa 0,0 mm S-SO 161 4,8 km/h (1 Bft)
23.11.2013 19:00 4,4 C 93 % 1009,7 hPa 0,0 mm W 259 8,0 km/h (2 Bft)
23.11.2013 19:05 4,5 C 93 % 1009,7 hPa 0,0 mm NW 307 6,4 km/h (2 Bft)
23.11.2013 19:10 4,6 C 93 % 1009,9 hPa 0,0 mm W-NW 294 1,6 km/h (1 Bft)
23.11.2013 19:15 4,7 C 93 % 1009,8 hPa 0,0 mm W-NW 294 0,0 km/h (0 Bft)
23.11.2013 19:20 4,7 C 93 % 1009,8 hPa 0,0 mm W-NW 295 1,6 km/h (1 Bft)
23.11.2013 19:25 4,8 C 93 % 1009,9 hPa 0,0 mm W-NW 295 1,6 km/h (1 Bft)
23.11.2013 19:30 4,8 C 93 % 1009,9 hPa 0,0 mm O-NO 77 4,8 km/h (1 Bft)
23.11.2013 19:35 5,0 C 93 % 1009,9 hPa 0,0 mm NO 34 4,8 km/h (1 Bft)
23.11.2013 19:40 5,1 C 93 % 1010,0 hPa 0,0 mm NO 53 9,7 km/h (2 Bft)
23.11.2013 19:45 5,2 C 93 % 1010,0 hPa 0,0 mm NO 54 8,0 km/h (2 Bft)
23.11.2013 19:50 5,3 C 93 % 1009,9 hPa 0,0 mm O-NO 74 4,8 km/h (1 Bft)
23.11.2013 19:55 5,3 C 93 % 1010,0 hPa 0,0 mm NO 44 6,4 km/h (2 Bft)
23.11.2013 20:00 5,3 C 93 % 1009,9 hPa 0,0 mm N-NO 33 8,0 km/h (2 Bft)
23.11.2013 20:05 5,4 C 93 % 1009,9 hPa 0,0 mm O-NO 71 11,3 km/h (2 Bft)
23.11.2013 20:10 5,4 C 93 % 1010,1 hPa 0,0 mm O-NO 75 12,9 km/h (3 Bft)
23.11.2013 20:15 5,4 C 93 % 1010,1 hPa 0,2 mm N-NO 31 14,5 km/h (3 Bft)
23.11.2013 20:20 5,5 C 93 % 1010,1 hPa 0,0 mm N-NO 30 9,7 km/h (2 Bft)
23.11.2013 20:25 5,5 C 93 % 1010,2 hPa 0,0 mm N 355 12,9 km/h (3 Bft)
23.11.2013 20:30 5,5 C 93 % 1010,1 hPa 0,0 mm N 5 8,0 km/h (2 Bft)
23.11.2013 20:35 5,5 C 93 % 1010,1 hPa 0,0 mm O-NO 65 9,7 km/h (2 Bft)
23.11.2013 20:40 5,5 C 93 % 1010,1 hPa 0,2 mm N 9 8,0 km/h (2 Bft)
23.11.2013 20:45 5,5 C 93 % 1010,2 hPa 0,0 mm N 355 9,7 km/h (2 Bft)
23.11.2013 20:50 5,5 C 93 % 1010,3 hPa 0,0 mm NO 40 8,0 km/h (2 Bft)
23.11.2013 20:55 5,5 C 93 % 1010,2 hPa 0,0 mm NO 51 6,4 km/h (2 Bft)
23.11.2013 21:00 5,5 C 92 % 1010,3 hPa 0,0 mm NO 39 3,2 km/h (1 Bft)
23.11.2013 21:05 5,5 C 92 % 1010,4 hPa 0,0 mm O 94 8,0 km/h (2 Bft)
23.11.2013 21:10 5,5 C 92 % 1010,5 hPa 0,0 mm O-NO 77 9,7 km/h (2 Bft)
23.11.2013 21:15 5,5 C 92 % 1010,5 hPa 0,0 mm O-NO 60 11,3 km/h (2 Bft)
23.11.2013 21:20 5,4 C 92 % 1010,5 hPa 0,2 mm O-SO 108 14,5 km/h (3 Bft)
23.11.2013 21:25 5,4 C 92 % 1010,5 hPa 0,0 mm O-NO 63 12,9 km/h (3 Bft)
23.11.2013 21:30 5,3 C 92 % 1010,6 hPa 0,0 mm O 82 11,3 km/h (2 Bft)
23.11.2013 21:35 5,3 C 91 % 1010,6 hPa 0,0 mm O 95 11,3 km/h (2 Bft)
23.11.2013 21:40 5,2 C 92 % 1010,7 hPa 0,0 mm O 83 8,0 km/h (2 Bft)
23.11.2013 21:45 5,2 C 92 % 1010,7 hPa 0,2 mm NO 55 8,0 km/h (2 Bft)
23.11.2013 21:50 5,1 C 91 % 1010,7 hPa 0,0 mm N-NO 33 14,5 km/h (3 Bft)
23.11.2013 21:55 5,1 C 91 % 1010,8 hPa 0,0 mm O 90 14,5 km/h (3 Bft)
23.11.2013 22:00 5,0 C 91 % 1010,7 hPa 0,0 mm NO 42 14,5 km/h (3 Bft)
23.11.2013 22:05 4,9 C 91 % 1010,8 hPa 0,0 mm O 80 12,9 km/h (3 Bft)
23.11.2013 22:10 4,9 C 91 % 1010,9 hPa 0,0 mm NO 55 12,9 km/h (3 Bft)
23.11.2013 22:15 4,9 C 91 % 1011,0 hPa 0,2 mm O 79 14,5 km/h (3 Bft)
23.11.2013 22:20 4,8 C 91 % 1010,9 hPa 0,0 mm O 88 14,5 km/h (3 Bft)
23.11.2013 22:25 4,8 C 91 % 1010,9 hPa 0,0 mm O-SO 103 16,1 km/h (3 Bft)
23.11.2013 22:30 4,8 C 91 % 1010,9 hPa 0,0 mm O 83 11,3 km/h (2 Bft)
23.11.2013 22:35 4,7 C 91 % 1011,0 hPa 0,2 mm O-NO 72 12,9 km/h (3 Bft)
23.11.2013 22:40 4,7 C 91 % 1011,0 hPa 0,0 mm O-NO 61 11,3 km/h (2 Bft)
23.11.2013 22:45 4,7 C 91 % 1011,0 hPa 0,0 mm O-NO 76 9,7 km/h (2 Bft)
23.11.2013 22:50 4,6 C 91 % 1011,1 hPa 0,0 mm O-NO 76 11,3 km/h (2 Bft)
23.11.2013 22:55 4,6 C 92 % 1011,1 hPa 0,0 mm O 96 11,3 km/h (2 Bft)
23.11.2013 23:00 4,6 C 92 % 1011,1 hPa 0,0 mm O 94 9,7 km/h (2 Bft)
23.11.2013 23:05 4,6 C 92 % 1011,2 hPa 0,2 mm O 89 9,7 km/h (2 Bft)
23.11.2013 23:10 4,5 C 92 % 1011,2 hPa 0,0 mm O 84 8,0 km/h (2 Bft)
23.11.2013 23:15 4,5 C 92 % 1011,2 hPa 0,0 mm O-NO 73 6,4 km/h (2 Bft)
23.11.2013 23:20 4,4 C 92 % 1011,2 hPa 0,2 mm O 99 6,4 km/h (2 Bft)
23.11.2013 23:25 4,4 C 92 % 1011,3 hPa 0,0 mm O 92 3,2 km/h (1 Bft)
23.11.2013 23:30 4,4 C 92 % 1011,2 hPa 0,0 mm NO 53 4,8 km/h (1 Bft)
23.11.2013 23:35 4,4 C 92 % 1011,3 hPa 0,0 mm O 80 8,0 km/h (2 Bft)
23.11.2013 23:40 4,4 C 92 % 1011,3 hPa 0,0 mm O-SO 108 6,4 km/h (2 Bft)
23.11.2013 23:45 4,4 C 92 % 1011,3 hPa 0,2 mm O-SO 108 3,2 km/h (1 Bft)
23.11.2013 23:50 4,4 C 92 % 1011,3 hPa 0,0 mm O-SO 108 1,6 km/h (1 Bft)
23.11.2013 23:55 4,3 C 92 % 1011,3 hPa 0,0 mm O 79 4,8 km/h (1 Bft)
_ Min-Zeit 05:50 21:35 00:45 - - - 00:00
Minimum _ 1,8 C 91 % 1008,4 hPa - - - 0,0 km/h (0 Bft)
_ Max-Zeit 20:20 02:35 23:25 04:55 - - 22:25
Maximum _ 5,5 C 93 % 1011,3 hPa 0,4 mm - - 16,1 km/h
O-NO (3 Bft)
Durchschnitt _ 3,5 C 93 % 1009,4 hPa #7,8 mm W - 4,0 km/h (1 Bft)